Home   Weather   Magdeburg   Past weeks
Flag for Germany

Past Weather in Magdeburg, Saxony-Anhalt, Germany — Yesterday and Last 2 Weeks

Now
52 °F

Overcast.


Feels Like: 52 °F
Forecast: 63 / 44 °F
Wind: 2 mph from North

Location: Braunschweig Wolfsburg

Current Time: Oct 22, 2019 at 11:43:51 pm

Latest Report: Oct 22, 2019 at 9:50 pm


Visibility: N/A

Pressure: 30.24 "Hg

Humidity: 82%

Dew Point: 46 °F

Location of MagdeburgLocation

Past Weather in Magdeburg — Graph

°F

Magdeburg Temperature Yesterday

Maximum temperature yesterday: 66 °F (at 1:50 pm)
Minimum temperature yesterday: 54 °F (at 6:20 am)
Average temperature yesterday: 59 °F

High & Low Weather Summary for the Past Weeks

 TemperatureHumidityPressure
High73 °F (Oct 13, 5:20 pm)100% (Oct 15, 6:50 am)30.24 "Hg (Oct 15, 6:50 am)
Low43 °F (Oct 7, 9:20 pm)57% (Oct 13, 5:50 pm)29.65 "Hg (Oct 8, 5:20 pm)
Average59 °F78%29.84 "Hg
* Reported Oct 7 9:20 pm — Oct 22 9:50 pm, Magdeburg. Weather by CustomWeather, © 2019

Note: Actual official high and low records may vary slightly from our data, if they occured in-between our weather recording intervals... More about our weather records

Advertising

Magdeburg Weather History for the Previous 24 Hours

Scroll right to see more
 ConditionsComfort  
Time TempWeatherWind HumidityBarometerVisibility
9:50 pm
Tue, Oct 22
52 °FOvercast.2 mph82%30.24 "HgN/A
8:50 pm52 °FOvercast.2 mph82%30.24 "HgN/A
8:20 pm54 °FOvercast.3 mph82%30.24 "HgN/A
7:50 pm52 °FPassing clouds.5 mph82%30.24 "HgN/A
7:20 pm52 °FPassing clouds.5 mph82%30.24 "HgN/A
6:50 pm50 °FPassing clouds.5 mph82%30.24 "HgN/A
6:20 pm52 °FPassing clouds.6 mph82%30.24 "HgN/A
5:50 pm54 °FScattered clouds.7 mph77%30.24 "HgN/A
5:20 pm55 °FPassing clouds.8 mph72%30.24 "HgN/A
4:50 pm55 °FScattered clouds.9 mph72%30.21 "HgN/A
4:20 pm55 °FScattered clouds.10 mph72%30.24 "HgN/A
3:50 pm55 °FScattered clouds.10 mph72%30.24 "HgN/A
3:20 pm57 °FPassing clouds.9 mph72%30.24 "HgN/A
2:50 pm55 °FSunny.10 mph77%30.24 "Hg10 mi
2:20 pm57 °FSunny.9 mph72%30.24 "Hg10 mi
1:50 pm55 °FPassing clouds.9 mph77%30.24 "HgN/A
1:20 pm55 °FPassing clouds.9 mph72%30.24 "HgN/A
12:50 pm54 °FSunny.12 mph77%30.24 "Hg10 mi
12:20 pm55 °FSunny.10 mph72%30.24 "Hg10 mi
11:50 am55 °FPassing clouds.10 mph77%30.24 "HgN/A
11:20 am55 °FSunny.9 mph72%30.24 "Hg10 mi
10:50 am55 °FSunny.7 mph77%30.24 "Hg10 mi
10:20 am55 °FSunny.7 mph77%30.21 "Hg10 mi
9:50 am54 °FSunny.3 mph77%30.21 "Hg10 mi
9:20 am52 °FPassing clouds.5 mph82%30.21 "HgN/A
8:50 am52 °FSunny.5 mph82%30.18 "Hg10 mi
8:20 am50 °FSunny.3 mph88%30.18 "Hg10 mi
7:50 am50 °FClear.6 mph94%30.18 "Hg10 mi
7:20 am52 °FClear.1 mph88%30.18 "Hg10 mi
6:50 am52 °FClear.3 mph88%30.18 "Hg10 mi
Weather by CustomWeather, © 2019

See weather overview